Theta_e
314 315 315 314 314 313 313 314 314 314 313 312 311 311 310 310 309 308 308 308 307 306 307 306 305 306 305 305 305 304 303 302 298 300 303 304 303 302 301 303 302 302 303
315 315 315 316 315 314 314 314 314 312 313 311 311 310 309 308 309 308 307 307 306 306 306 306 305 305 305 305 305 303 303 303 300 298 301 302 302 303 304 301 301 301 301
314 314 316 316 317 317 316 315 314 312 311 311 310 309 308 308 308 308 307 307 307 307 306 306 306 306 304 304 304 303 303 303 302 299 299 302 302 303 302 302 300 301 301
314 314 317 318 320 317 315 314 313 311 310 309 310 309 309 308 307 308 307 307 307 307 307 307 306 306 305 305 304 304 303 302 302 300 300 300 301 302 301 299 297 298 298
313 314 316 318 318 315 314 314 314 312 310 309 308 308 308 308 306 308 308 307 307 307 307 307 307 308 309 309 305 304 304 302 301 300 299 299 299 299 298 299 296 297 297
313 313 316 315 314 316 315 314 313 312 311 310 309 308 308 306 309 309 307 305 305 305 305 306 307 309 309 310 310 309 307 302 302 300 299 298 299 300 300 298 296 294 291
313 313 313 312 313 314 315 313 313 313 312 311 311 311 310 310 311 310 309 305 305 306 306 306 306 306 307 305 307 307 307 307 308 303 300 299 298 300 298 289 291 292 293
312 312 311 312 312 314 313 312 313 313 313 312 312 311 311 310 311 309 307 305 305 306 307 307 307 308 308 306 305 303 303 303 304 305 305 304 304 303 301 299 295 292 293
312 311 312 313 313 313 312 313 313 313 312 311 311 310 310 310 310 308 305 305 306 307 308 308 308 307 309 310 304 302 302 303 306 308 308 307 307 306 305 301 294 291 289
312 312 313 313 312 311 313 314 313 311 310 310 309 310 310 308 309 307 304 303 304 305 306 307 307 307 308 307 304 303 301 302 304 304 302 302 303 303 305 303 300 292 290
313 314 313 312 311 312 313 312 312 310 309 308 308 309 309 309 309 306 304 303 303 304 304 304 306 306 305 304 304 303 303 305 305 304 303 302 301 301 301 301 300 297 293
313 312 312 312 312 309 310 311 310 309 307 307 306 307 308 309 308 306 303 303 303 302 303 305 306 303 304 304 304 305 304 304 302 301 300 299 300 300 299 300 299 299 298
312 311 312 312 311 310 309 309 308 307 306 305 305 305 305 307 306 304 303 303 304 301 302 303 304 304 304 304 304 303 302 299 297 296 295 295 297 299 301 299 299 298 298
311 311 312 310 309 309 308 307 306 305 305 304 303 303 304 304 304 304 302 302 304 303 302 300 301 302 303 302 301 299 297 296 295 294 294 295 295 295 295 299 295 294 292
310 310 309 308 307 307 307 307 306 306 304 303 303 303 301 301 300 299 299 298 298 297 296 296 297 297 296 295 295 295 294 293 292 291 291 290 291 293 293 295 294 292 290
308 308 307 306 307 306 305 305 303 302 301 300 300 299 300 299 298 298 297 296 296 295 293 293 294 293 292 292 291 291 291 290 290 290 289 290 290 290 291 293 293 291 289
306 305 305 302 303 304 303 302 301 302 300 299 299 299 298 297 296 296 295 295 295 295 292 292 291 291 290 290 290 290 289 289 290 289 289 289 290 290 290 290 292 290 289
303 301 302 303 304 303 302 301 301 299 299 300 298 297 298 296 295 295 294 293 292 294 293 291 290 290 290 290 289 288 288 288 288 289 289 289 290 289 288 288 290 290 289
301 302 302 303 303 301 300 300 299 299 298 298 299 297 297 295 294 295 294 291 291 290 291 290 290 290 289 289 289 289 288 288 288 287 287 288 288 288 288 289 287 291 291
301 299 298 301 301 299 299 298 298 297 297 297 297 298 298 295 293 294 294 293 291 291 291 290 289 289 289 288 288 288 288 288 287 287 287 287 287 287 286 288 288 286 287
301 300 298 298 299 299 298 297 297 297 296 297 297 298 293 292 292 293 293 292 291 290 290 289 289 288 288 288 288 288 288 287 287 287 286 287 287 286 287 287 287 287 286
300 299 299 298 299 297 297 297 296 296 296 296 296 296 294 292 292 293 292 292 292 291 291 289 289 288 288 288 288 288 287 287 287 287 286 287 286 286 286 285 285 286 286
299 298 297 297 297 297 295 295 296 296 296 296 295 294 293 293 293 293 292 292 291 291 291 290 289 289 289 289 289 289 287 287 287 288 287 286 285 285 285 285 284 284 285
298 297 296 296 297 296 295 296 296 295 294 294 293 293 293 293 293 292 292 292 291 291 290 290 289 288 288 288 289 289 289 289 289 288 288 286 285 285 285 285 285 284 284
297 297 296 296 296 295 295 295 295 295 295 294 293 293 293 293 292 292 292 292 291 290 290 290 289 289 288 288 288 287 288 288 288 288 288 287 286 286 285 285 285 284 285
296 296 296 295 295 295 295 295 295 295 294 294 293 293 293 292 292 291 291 291 290 290 289 289 289 288 288 288 288 288 288 288 288 289 288 287 286 286 286 285 285 285 285
Wind_Speed
9 9 9 8 8 7 7 7 8 8 8 9 9 9 10 11 11 10 12 11 12 12 12 13 15 12 10 10 10 10 10 9 13 10 9 10 12 10 10 8 8 9 9
9 9 8 6 5 6 7 8 7 8 8 9 9 9 10 10 10 11 11 11 12 13 13 13 15 10 14 13 10 11 11 11 11 17 12 10 12 8 9 11 9 9 10
9 8 7 6 6 6 6 6 7 8 8 8 8 9 9 9 9 10 11 12 12 13 13 13 13 13 13 10 11 11 11 10 11 11 13 8 9 8 8 8 9 10 9
8 7 7 6 5 4 5 6 7 8 9 9 8 8 7 8 9 10 10 11 12 12 13 13 13 13 13 13 13 13 12 11 11 10 10 10 9 8 8 8 6 6 8
8 8 7 6 4 4 5 6 7 7 8 8 8 7 7 7 7 9 9 11 12 12 12 12 13 14 19 17 10 11 11 10 9 9 10 9 8 7 7 4 7 7 7
10 9 6 4 5 4 5 6 6 7 8 7 7 7 7 6 9 9 9 9 11 12 12 12 13 15 16 21 21 22 17 11 12 10 10 10 11 6 6 8 8 7 7
10 9 7 6 5 3 4 6 6 6 7 6 6 7 8 8 7 8 10 9 10 11 13 12 11 9 9 10 12 18 21 24 23 14 14 12 12 11 4 4 8 8 10
10 9 8 6 4 4 4 6 6 6 6 6 6 6 7 7 7 7 8 9 10 13 13 13 12 12 9 9 9 9 10 10 12 11 15 17 14 12 7 8 10 10 8
10 9 7 6 4 4 5 5 6 6 5 6 5 7 8 8 6 5 6 9 9 10 10 10 9 10 10 8 7 9 10 11 9 14 17 18 20 20 18 7 7 6 6
11 8 7 5 4 5 5 5 5 5 6 5 7 7 8 8 7 3 5 7 8 7 8 7 7 8 10 10 8 9 10 10 9 6 7 11 14 14 21 13 6 7 7
8 7 6 5 6 6 4 4 5 5 5 6 7 7 7 6 6 4 6 6 6 7 7 6 5 5 3 8 11 8 11 11 12 10 10 9 7 8 7 7 8 7 8
8 7 6 6 4 3 5 5 5 5 6 6 7 6 4 4 3 2 6 7 9 8 7 6 6 13 12 12 11 14 17 15 7 8 8 8 7 6 7 8 10 9 9
9 7 7 6 4 5 5 5 5 5 5 6 5 5 5 3 4 5 6 6 6 5 7 8 13 13 13 11 11 14 14 8 7 6 7 8 9 9 9 5 7 8 9
8 7 5 5 6 5 4 4 4 4 5 5 5 5 4 4 4 3 5 6 7 7 9 9 12 15 13 10 8 6 6 7 7 7 7 7 7 7 9 6 4 5 4
6 5 4 5 5 4 4 3 4 4 3 4 4 4 5 5 3 5 6 6 7 8 11 8 6 5 6 5 5 5 5 6 7 8 8 11 9 8 8 7 4 3 5
5 4 4 3 2 3 3 3 8 8 3 5 7 5 5 1 3 6 7 7 9 10 7 6 6 5 5 6 6 5 5 8 8 8 9 9 9 8 8 8 5 5 6
6 5 2 3 3 3 3 4 4 5 8 8 7 6 5 7 6 6 7 9 12 9 6 5 5 5 5 5 6 6 6 7 9 7 8 8 8 8 11 8 7 6 6
5 3 2 2 3 3 4 4 4 4 4 3 9 7 8 7 7 7 6 9 6 3 5 4 5 5 5 5 5 6 7 7 7 8 9 9 9 9 8 7 8 7 6
4 3 4 3 3 3 3 4 4 4 4 4 3 7 8 8 7 11 8 5 5 5 5 4 4 5 5 6 6 6 7 7 8 8 8 8 8 9 8 5 6 14 11
4 4 2 3 3 4 4 3 3 4 4 4 4 4 2 3 5 6 4 4 5 5 5 4 4 4 5 5 6 7 6 7 7 7 8 8 8 7 8 8 5 6 8
4 4 5 3 3 3 3 3 3 3 4 4 4 3 2 3 7 7 5 5 5 5 5 4 3 5 5 6 6 7 7 7 7 7 7 7 8 8 8 8 8 6 6
4 4 4 3 3 3 3 3 3 4 5 4 4 4 8 4 6 7 6 5 6 5 4 4 4 5 5 5 7 7 7 7 7 6 7 7 8 8 7 8 8 7 7
3 4 3 3 3 2 3 4 4 4 4 4 5 5 5 5 5 6 6 5 6 5 4 4 6 6 6 6 6 7 7 7 7 7 7 8 8 8 8 8 8 8 7
3 2 2 2 1 2 3 4 5 6 6 6 6 6 5 5 6 7 6 5 6 6 5 6 5 9 9 7 6 7 7 7 6 8 10 10 9 10 8 8 8 9 8
2 1 2 2 3 4 5 5 6 6 5 5 5 5 6 6 6 7 6 6 6 6 6 6 5 8 12 12 11 13 13 11 11 14 9 9 11 13 10 9 8 8 10
2 2 2 2 4 4 5 5 5 5 5 5 5 6 6 6 6 6 6 6 6 6 8 6 7 13 15 11 11 13 14 17 16 18 11 9 10 8 8 9 11 8 9
Wind_Direction
196 203 210 218 225 235 244 252 256 258 258 254 248 243 244 242 241 240 239 242 244 244 240 242 246 246 245 243 239 239 244 248 260 264 259 253 255 227 233 233 222 245 240
188 193 198 203 212 232 247 255 257 261 259 255 255 255 252 247 245 245 248 245 245 246 248 246 248 242 247 248 248 248 245 240 251 263 255 257 256 256 245 229 236 243 240
184 187 195 202 211 235 260 275 275 274 269 262 256 254 262 265 259 254 254 255 254 255 252 251 253 245 248 244 243 243 245 247 247 258 267 265 257 251 259 232 232 247 252
186 196 199 207 211 243 279 287 289 286 282 277 271 271 269 267 263 261 259 261 262 259 260 257 256 254 252 248 242 243 243 241 244 251 262 265 258 253 242 245 243 239 251
190 200 211 208 208 247 266 283 291 287 282 281 282 279 272 260 257 257 257 255 259 264 264 262 258 253 255 255 259 251 246 247 245 248 254 261 262 260 245 245 242 248 252
197 207 205 207 229 242 271 285 292 285 282 277 272 272 271 262 263 246 246 268 281 281 275 268 264 259 252 248 252 259 260 261 256 246 253 262 268 253 227 222 235 241 266
196 203 209 221 239 250 271 282 277 275 285 289 284 279 277 279 273 268 252 263 267 267 268 270 269 268 265 267 266 265 257 257 254 259 265 266 273 254 232 224 232 229 242
195 203 210 215 235 258 269 269 275 283 286 287 286 282 284 282 268 257 254 267 261 262 267 275 277 280 277 282 278 268 270 262 244 242 245 254 258 268 254 237 228 234 256
195 203 203 210 228 245 252 267 282 286 288 291 296 291 286 294 314 283 277 284 280 283 282 280 282 288 292 288 267 276 275 270 266 254 256 267 271 272 268 267 234 216 242
194 193 192 198 227 241 250 266 277 277 280 282 289 285 286 287 305 8 326 302 294 300 299 294 279 264 276 290 286 276 277 277 279 274 272 267 266 263 266 260 260 222 229
169 162 185 201 215 239 259 265 268 274 281 280 281 284 286 285 302 5 331 308 307 311 306 308 310 31 328 310 300 282 277 292 289 278 272 268 264 266 254 248 239 226 232
156 170 189 205 210 220 243 252 256 260 269 275 279 283 286 296 318 343 338 318 314 300 302 306 338 348 321 307 297 288 295 301 300 291 284 286 282 263 240 234 240 234 231
165 182 199 206 216 229 239 245 251 252 259 274 279 288 295 315 308 192 250 260 285 303 304 306 299 298 299 301 306 324 309 293 299 315 313 314 318 323 288 241 228 238 243
176 190 196 215 234 228 228 228 240 255 265 274 282 288 310 310 292 12 335 325 325 321 346 326 304 286 269 276 298 337 338 317 316 310 307 311 316 314 310 282 232 230 240
184 190 215 230 222 230 235 234 253 268 299 286 291 310 297 293 28 356 323 319 326 328 323 305 299 323 331 329 328 330 337 348 325 319 315 310 307 302 300 298 258 242 233
184 211 222 220 217 238 258 267 214 232 256 253 265 262 306 334 346 307 307 317 316 317 313 302 320 325 325 330 328 328 319 323 319 317 312 309 308 307 303 296 253 237 244
200 207 189 200 238 240 253 263 279 193 221 220 217 234 248 292 296 293 305 316 308 301 297 315 312 321 325 321 319 330 335 326 317 312 302 302 305 305 309 307 301 243 243
190 141 217 214 222 231 244 254 260 262 279 253 208 222 224 251 271 276 296 316 300 250 279 303 306 309 314 319 327 325 316 320 312 317 314 309 304 300 300 306 307 291 256
178 196 191 208 214 228 259 254 250 258 262 274 284 197 204 229 262 267 260 264 297 292 282 290 308 315 324 334 319 307 310 308 309 312 310 308 304 307 297 285 309 315 290
194 180 201 226 213 221 232 244 256 261 268 270 269 272 282 236 278 285 255 273 271 278 282 287 295 310 307 298 293 297 296 299 302 305 302 303 306 294 308 315 320 313 311
185 168 189 215 226 223 234 246 261 268 265 262 270 280 113 291 289 285 286 282 279 276 281 289 305 286 289 298 292 292 293 293 296 301 302 300 299 302 314 320 314 293 307
177 166 180 199 202 210 233 239 250 252 257 267 273 271 186 234 265 271 274 277 275 271 270 270 274 272 285 284 287 290 288 289 290 291 292 296 298 296 294 299 292 285 293
167 166 181 199 216 224 239 238 247 254 257 260 261 259 261 257 262 267 275 276 271 267 272 273 276 276 281 283 287 288 288 289 292 286 291 294 293 293 290 288 287 285 282
157 164 209 241 226 250 252 253 248 242 250 262 265 270 275 273 272 271 270 270 270 268 257 260 259 270 287 286 284 285 284 285 291 291 286 285 286 288 278 274 273 278 278
137 200 238 249 245 239 250 247 247 248 254 257 260 263 262 267 272 276 273 267 267 269 267 270 270 279 285 286 288 294 295 297 291 287 285 275 276 276 272 269 266 269 270
153 232 260 272 264 257 261 261 265 267 263 265 266 271 274 266 261 264 265 261 267 272 274 266 266 281 287 288 286 289 296 297 294 291 289 280 275 271 271 260 264 256 263